TimeCDT,TemperatureF,Dew PointF,Humidity,Sea Level PressureIn,VisibilityMPH,Wind Direction,Wind SpeedMPH,Gust SpeedMPH,PrecipitationIn,Events,Conditions,WindDirDegrees,DateUTC
12:35 AM,64.4,55.4,73,30.04,8.0,East,18.4,-,1.16,Thunderstorm,Thunderstorm,100,2013-06-19 05:35:00
12:55 AM,64.4,57.2,77,30.05,10.0,East,11.5,-,1.17,Thunderstorm,Scattered Clouds,100,2013-06-19 05:55:00
1:15 AM,64.4,57.2,77,30.05,10.0,ESE,11.5,-,N/A,,Mostly Cloudy,110,2013-06-19 06:15:00
1:35 AM,66.2,59.0,78,30.06,10.0,East,10.4,-,N/A,,Overcast,90,2013-06-19 06:35:00
1:55 AM,66.2,59.0,78,30.08,10.0,East,10.4,-,N/A,,Mostly Cloudy,80,2013-06-19 06:55:00
2:15 AM,66.2,60.8,83,30.05,10.0,ESE,16.1,19.6,0.02,,Overcast,110,2013-06-19 07:15:00
2:35 AM,66.2,60.8,83,30.04,10.0,ESE,13.8,-,0.03,Thunderstorm,Mostly Cloudy,120,2013-06-19 07:35:00
2:55 AM,66.2,60.8,83,30.06,10.0,SE,11.5,-,0.03,,Mostly Cloudy,130,2013-06-19 07:55:00
3:15 AM,66.2,60.8,83,30.05,10.0,SE,17.3,-,0.01,,Overcast,140,2013-06-19 08:15:00
3:35 AM,66.2,60.8,83,30.05,10.0,SE,15.0,-,0.01,,Scattered Clouds,130,2013-06-19 08:35:00
3:55 AM,64.4,59.0,83,30.06,10.0,SE,11.5,-,0.01,,Mostly Cloudy,130,2013-06-19 08:55:00
4:15 AM,64.4,59.0,83,30.06,10.0,ESE,9.2,-,0.01,,Mostly Cloudy,120,2013-06-19 09:15:00
4:35 AM,64.4,59.0,83,30.07,10.0,SSE,6.9,-,0.01,,Overcast,150,2013-06-19 09:35:00
4:55 AM,64.4,59.0,83,30.07,10.0,SSE,9.2,-,0.01,,Mostly Cloudy,160,2013-06-19 09:55:00
5:15 AM,64.4,60.8,88,30.06,10.0,SSE,12.7,-,N/A,,Overcast,160,2013-06-19 10:15:00
5:35 AM,64.4,59.0,83,30.00,10.0,SE,25.3,32.2,0.02,,Mostly Cloudy,140,2013-06-19 10:35:00
5:55 AM,62.6,57.2,82,29.96,10.0,SE,32.2,39.1,0.02,,Mostly Cloudy,140,2013-06-19 10:55:00
6:15 AM,62.6,55.4,77,29.97,10.0,SSE,24.2,29.9,N/A,,Scattered Clouds,150,2013-06-19 11:15:00
6:35 AM,62.6,55.4,77,29.95,10.0,South,21.9,33.4,N/A,,Clear,170,2013-06-19 11:35:00
6:55 AM,64.4,57.2,77,30.00,10.0,South,18.4,23.0,N/A,,Clear,190,2013-06-19 11:55:00
7:15 AM,64.4,57.2,77,29.99,10.0,SSW,19.6,-,N/A,,Clear,200,2013-06-19 12:15:00
7:35 AM,64.4,57.2,77,30.01,10.0,SSW,23.0,28.8,N/A,,Partly Cloudy,200,2013-06-19 12:35:00
7:55 AM,64.4,57.2,77,30.00,10.0,SSW,23.0,31.1,N/A,,Clear,200,2013-06-19 12:55:00
8:15 AM,66.2,59.0,78,30.00,10.0,SSW,21.9,27.6,N/A,,Scattered Clouds,200,2013-06-19 13:15:00
8:35 AM,66.2,59.0,78,29.99,10.0,SSW,19.6,26.5,N/A,,Partly Cloudy,210,2013-06-19 13:35:00
8:55 AM,66.2,60.8,83,29.99,10.0,SSW,19.6,-,N/A,,Scattered Clouds,210,2013-06-19 13:55:00
9:15 AM,66.2,60.8,83,30.01,10.0,SSW,16.1,25.3,N/A,,Mostly Cloudy,200,2013-06-19 14:15:00
9:35 AM,69.8,62.6,78,30.01,10.0,SSW,20.7,-,N/A,,Mostly Cloudy,200,2013-06-19 14:35:00
9:55 AM,69.8,62.6,78,30.01,10.0,SSW,17.3,-,N/A,,Overcast,200,2013-06-19 14:55:00
10:15 AM,69.8,62.6,78,30.01,10.0,South,19.6,-,N/A,,Overcast,190,2013-06-19 15:15:00
10:35 AM,69.8,62.6,78,30.00,10.0,South,15.0,-,N/A,,Overcast,180,2013-06-19 15:35:00
10:55 AM,69.8,62.6,78,30.00,10.0,South,15.0,-,N/A,,Overcast,190,2013-06-19 15:55:00
11:15 AM,71.6,62.6,73,30.00,10.0,South,13.8,-,N/A,,Overcast,190,2013-06-19 16:15:00
11:35 AM,73.4,64.4,73,29.99,10.0,SSW,18.4,-,N/A,,Overcast,200,2013-06-19 16:35:00
11:55 AM,75.2,64.4,69,30.00,10.0,SSW,17.3,23.0,N/A,,Overcast,210,2013-06-19 16:55:00
12:15 PM,75.2,64.4,69,29.99,10.0,SW,19.6,25.3,N/A,,Overcast,220,2013-06-19 17:15:00
12:35 PM,75.2,64.4,69,29.99,10.0,SSW,18.4,21.9,N/A,,Overcast,210,2013-06-19 17:35:00
12:55 PM,75.2,64.4,69,29.99,10.0,SSW,20.7,24.2,0.02,,Overcast,200,2013-06-19 17:55:00
1:15 PM,77.0,62.6,61,29.99,10.0,SSW,17.3,-,N/A,,Overcast,200,2013-06-19 18:15:00
1:35 PM,78.8,64.4,61,29.98,10.0,SSW,17.3,-,N/A,,Overcast,210,2013-06-19 18:35:00
1:55 PM,78.8,64.4,61,29.98,10.0,South,19.6,23.0,N/A,,Mostly Cloudy,190,2013-06-19 18:55:00
2:15 PM,80.6,64.4,58,29.97,10.0,South,20.7,25.3,N/A,,Mostly Cloudy,190,2013-06-19 19:15:00
2:35 PM,82.4,64.4,54,29.97,10.0,South,20.7,25.3,N/A,,Scattered Clouds,190,2013-06-19 19:35:00
2:55 PM,82.4,64.4,54,29.96,10.0,South,17.3,25.3,N/A,,Partly Cloudy,190,2013-06-19 19:55:00
3:15 PM,84.2,64.4,51,29.96,10.0,South,20.7,25.3,N/A,,Clear,190,2013-06-19 20:15:00
3:35 PM,86.0,64.4,48,29.95,10.0,South,21.9,27.6,N/A,,Clear,190,2013-06-19 20:35:00
3:55 PM,86.0,62.6,45,29.94,10.0,South,19.6,27.6,N/A,,Clear,180,2013-06-19 20:55:00
4:15 PM,86.0,62.6,45,29.93,10.0,South,23.0,28.8,N/A,,Clear,190,2013-06-19 21:15:00
4:35 PM,86.0,60.8,43,29.92,10.0,South,18.4,25.3,N/A,,Clear,180,2013-06-19 21:35:00
4:55 PM,86.0,60.8,43,29.91,10.0,South,23.0,27.6,N/A,,Clear,180,2013-06-19 21:55:00
5:15 PM,87.8,60.8,40,29.90,10.0,South,24.2,28.8,N/A,,Clear,170,2013-06-19 22:15:00
5:35 PM,87.8,59.0,38,29.89,10.0,South,19.6,29.9,N/A,,Clear,180,2013-06-19 22:35:00
5:55 PM,87.8,59.0,38,29.88,10.0,South,20.7,28.8,N/A,,Clear,180,2013-06-19 22:55:00
6:15 PM,87.8,59.0,38,29.87,10.0,South,19.6,27.6,N/A,,Clear,170,2013-06-19 23:15:00
6:35 PM,84.2,57.2,40,29.87,10.0,South,24.2,29.9,N/A,,Clear,170,2013-06-19 23:35:00
6:55 PM,84.2,60.8,45,29.87,10.0,South,20.7,27.6,N/A,,Clear,180,2013-06-19 23:55:00
7:15 PM,84.2,60.8,45,29.87,10.0,South,17.3,23.0,N/A,,Clear,170,2013-06-20 00:15:00
7:35 PM,84.2,60.8,45,29.86,10.0,SSE,19.6,25.3,N/A,,Clear,150,2013-06-20 00:35:00
7:55 PM,80.6,60.8,51,29.88,10.0,SE,19.6,24.2,N/A,,Clear,140,2013-06-20 00:55:00
8:15 PM,78.8,60.8,54,29.89,10.0,SE,19.6,27.6,N/A,,Clear,140,2013-06-20 01:15:00
8:35 PM,78.8,60.8,54,29.90,10.0,SE,18.4,25.3,N/A,,Clear,140,2013-06-20 01:35:00
8:55 PM,75.2,60.8,61,29.90,10.0,SE,17.3,-,N/A,,Clear,140,2013-06-20 01:55:00
9:15 PM,75.2,60.8,61,29.90,10.0,SE,19.6,23.0,N/A,,Clear,140,2013-06-20 02:15:00
9:35 PM,73.4,60.8,65,29.90,10.0,SE,16.1,-,N/A,,Clear,140,2013-06-20 02:35:00
9:55 PM,73.4,60.8,65,29.92,10.0,SE,13.8,-,N/A,,Clear,130,2013-06-20 02:55:00
10:15 PM,73.4,60.8,65,29.92,10.0,SE,17.3,-,N/A,,Clear,140,2013-06-20 03:15:00
10:35 PM,71.6,59.0,64,29.93,10.0,SE,13.8,-,N/A,,Clear,140,2013-06-20 03:35:00
10:55 PM,71.6,59.0,64,29.94,10.0,SE,11.5,-,N/A,,Clear,140,2013-06-20 03:55:00
11:15 PM,71.6,59.0,64,29.95,10.0,SSE,12.7,-,N/A,,Clear,150,2013-06-20 04:15:00
11:35 PM,69.8,59.0,68,29.95,10.0,SSE,12.7,-,N/A,,Clear,160,2013-06-20 04:35:00
11:55 PM,69.8,59.0,68,29.96,10.0,SSE,10.4,-,N/A,,Clear,160,2013-06-20 04:55:00